Overview Statistics Trail Chart Weather Telemetry Raw packets
 

This is the latest recevied weather packets stored in our database for station/object 4S6DRJ-13. If no packets are shown the sender has not sent any weather packets the latest 10 day(s).

<< 54 55 56 57 58 59 60 >>
Time Temp. Humidity Pressure Rain* Wind** Luminosity Snow
1788368554 27.78° C 85% 1011.6 hPa 0 mm 0.89 m/s, 219° 0 W/m² -
1788368492 27.78° C 85% 1011.4 hPa 0 mm 0.89 m/s, 251° 0 W/m² -
1788368431 27.78° C 85% 1011.4 hPa 0 mm 0.89 m/s, 219° 0 W/m² -
1788368370 27.78° C 85% 1011.4 hPa 0 mm 0 m/s 0 W/m² -
1788368309 27.78° C 85% 1011.4 hPa 0 mm 0.45 m/s, 236° 0 W/m² -
1788368248 27.78° C 85% 1011.6 hPa 0 mm 0.89 m/s, 213° 0 W/m² -
1788368187 27.78° C 85% 1011.2 hPa 0 mm 0.45 m/s, 359° 0 W/m² -
1788368126 27.78° C 85% 1011.3 hPa 0 mm 1.34 m/s, 236° 0 W/m² -
1788368065 27.78° C 85% 1011.3 hPa 0 mm 2.24 m/s, 240° 0 W/m² -
1788368004 27.78° C 85% 1011.5 hPa 0 mm 0.89 m/s, 270° 0 W/m² -
1788367943 27.78° C 85% 1011.3 hPa 0 mm 1.34 m/s, 159° 0 W/m² -
1788367882 27.78° C 85% 1011.4 hPa 0 mm 1.79 m/s, 225° 0 W/m² -
1788367821 27.78° C 85% 1011.4 hPa 0 mm 0.89 m/s, 237° 0 W/m² -
1788367760 27.78° C 85% 1011.5 hPa 0 mm 0.45 m/s, 225° 0 W/m² -
1788367707 27.78° C 85% 1011.2 hPa 0 mm 0.89 m/s, 239° 0 W/m² -
1788367638 27.78° C 85% 1011.4 hPa 0 mm 1.34 m/s, 253° 0 W/m² -
1788367577 27.78° C 85% 1011.5 hPa 0 mm 1.34 m/s, 250° 0 W/m² -
1788367517 27.78° C 85% 1011.6 hPa 0 mm 1.34 m/s, 252° 0 W/m² -
1788367455 27.78° C 85% 1011.4 hPa 0 mm 0.45 m/s, 237° 0 W/m² -
1788367394 27.78° C 85% 1011.2 hPa 0 mm 1.79 m/s, 218° 0 W/m² -
1788367333 27.78° C 85% 1011.4 hPa 0 mm 1.79 m/s, 67° 0 W/m² -
1788367272 27.78° C 85% 1011.2 hPa 0 mm 0.45 m/s, 215° 0 W/m² -
1788367211 27.78° C 85% 1011.3 hPa 0 mm 0.89 m/s, 243° 0 W/m² -
1788367150 27.78° C 85% 1011.3 hPa 0 mm 0.45 m/s, 211° 0 W/m² -
1788367089 27.78° C 85% 1011.3 hPa 0 mm 0.89 m/s, 187° 0 W/m² -

* Rain latest hour (hover to see other rain measurements)
** Current wind speed in m/s (hover to see current wind gust speed)